PLF111 EPKK-EPKK

Flight info

Callsign PLF111
Flight time N/A
Altitude 5500
Route EPKK/25 EPKKO EPKKM 503817N0201852E 505437N0203417E EPRAI EPRAH AEPRA/STAY10020 EPRAH/N0200A4500 EPRAI 505437N0203417E 503817N0201852E EPKKM EPKKO EPKKZ
Aircraft M28/M-SDFHRY/HB1

Departure

Time 2026-05-04 18:48
Airport Kraków John Paul II International Airport (EPKK)

Arrival

Time N/A
Airport Kraków John Paul II International Airport (EPKK)
Time Latitude Longitude Altitude Speed Heading
2026-05-04 18:02 50.07532 19.79006 798 ft 0 kts 337°
2026-05-04 18:41 50.07533 19.79005 798 ft 1 kts 337°
2026-05-04 18:41 50.07564 19.78998 798 ft 7 kts 43°
2026-05-04 18:41 50.07593 19.79094 798 ft 12 kts 66°
2026-05-04 18:41 50.07624 19.79235 798 ft 15 kts 79°
2026-05-04 18:42 50.07648 19.79409 798 ft 17 kts 78°
2026-05-04 18:42 50.07674 19.79597 798 ft 18 kts 78°
2026-05-04 18:42 50.07701 19.79784 798 ft 17 kts 77°
2026-05-04 18:42 50.07726 19.79970 798 ft 17 kts 78°
2026-05-04 18:43 50.07752 19.80153 798 ft 17 kts 77°
2026-05-04 18:43 50.07773 19.80302 798 ft 11 kts 78°
2026-05-04 18:43 50.07827 19.80341 798 ft 10 kts 345°
2026-05-04 18:43 50.07908 19.80312 798 ft 14 kts 346°
2026-05-04 18:44 50.08003 19.80281 798 ft 8 kts 348°
2026-05-04 18:44 50.08023 19.80263 798 ft 3 kts 260°
2026-05-04 18:44 50.08019 19.80248 798 ft 0 kts 253°
2026-05-04 18:47 50.08018 19.80239 798 ft 5 kts 256°
2026-05-04 18:48 50.07934 19.79718 803 ft 83 kts 258°
2026-05-04 18:48 50.07791 19.78708 958 ft 102 kts 253°
2026-05-04 18:48 50.07587 19.77472 1198 ft 127 kts 256°
2026-05-04 18:48 50.07363 19.76129 1666 ft 127 kts 260°
2026-05-04 18:49 50.07578 19.74835 1963 ft 133 kts 306°
2026-05-04 18:49 50.08463 19.74288 1928 ft 156 kts
2026-05-04 18:49 50.09394 19.75161 2031 ft 158 kts 52°
2026-05-04 18:49 50.09973 19.76602 2096 ft 162 kts 57°
2026-05-04 18:50 50.10657 19.78026 2143 ft 164 kts 52°
2026-05-04 18:50 50.11368 19.79425 2141 ft 165 kts 49°
2026-05-04 18:50 50.12168 19.80712 2109 ft 165 kts 42°
2026-05-04 18:50 50.13059 19.81818 2123 ft 163 kts 32°
2026-05-04 18:51 50.14060 19.82658 2070 ft 166 kts 20°
2026-05-04 18:51 50.15161 19.83242 2030 ft 164 kts 15°
2026-05-04 18:51 50.16254 19.83805 1917 ft 169 kts 18°
2026-05-04 18:51 50.17337 19.84494 1846 ft 163 kts 21°
2026-05-04 18:52 50.18371 19.85177 1769 ft 158 kts 22°
2026-05-04 18:52 50.19338 19.85865 1771 ft 150 kts 26°
2026-05-04 18:52 50.20231 19.86722 1666 ft 151 kts 34°
2026-05-04 18:52 50.21062 19.87692 1720 ft 147 kts 35°
2026-05-04 18:53 50.21917 19.88634 1764 ft 153 kts 32°
2026-05-04 18:53 50.22817 19.89462 1882 ft 152 kts 25°
2026-05-04 18:53 50.23724 19.90355 1951 ft 155 kts 38°
2026-05-04 18:53 50.24572 19.91386 2361 ft 150 kts 31°
2026-05-04 18:54 50.25470 19.92232 2820 ft 154 kts 28°
2026-05-04 18:54 50.26380 19.93172 3222 ft 159 kts 35°
2026-05-04 18:54 50.27286 19.94197 3638 ft 160 kts 32°
2026-05-04 18:54 50.28172 19.95172 4134 ft 155 kts 30°
2026-05-04 18:55 50.29079 19.96113 4527 ft 155 kts 28°
2026-05-04 18:55 50.30941 19.97897 5305 ft 161 kts 31°
2026-05-04 18:55 50.31892 19.98912 5416 ft 167 kts 34°
2026-05-04 18:56 50.32873 19.99933 5524 ft 169 kts 31°
2026-05-04 18:56 50.33859 20.00980 5511 ft 178 kts 33°
2026-05-04 18:56 50.34868 20.02133 5549 ft 180 kts 35°
2026-05-04 18:56 50.35902 20.03267 5550 ft 183 kts 32°
2026-05-04 18:57 50.36969 20.04331 5524 ft 185 kts 27°
2026-05-04 18:57 50.38106 20.05207 5585 ft 181 kts 25°
2026-05-04 18:57 50.39195 20.06282 5521 ft 187 kts 33°
2026-05-04 18:57 50.40255 20.07435 5519 ft 186 kts 31°
2026-05-04 18:58 50.41331 20.08598 5457 ft 189 kts 34°
2026-05-04 18:58 50.42417 20.09719 5499 ft 184 kts 30°
2026-05-04 18:58 50.43472 20.10828 5499 ft 184 kts 31°
2026-05-04 18:58 50.44593 20.11816 5476 ft 185 kts 25°
2026-05-04 18:59 50.45730 20.12788 5463 ft 186 kts 26°
2026-05-04 18:59 50.46845 20.13792 5507 ft 184 kts 29°
2026-05-04 18:59 50.47576 20.14493 5500 ft 185 kts 30°
2026-05-04 18:59 50.48666 20.15595 5501 ft 186 kts 31°
2026-05-04 19:00 50.50097 20.17079 5518 ft 185 kts 33°
2026-05-04 19:00 50.50804 20.17838 5506 ft 186 kts 32°
2026-05-04 19:00 50.51882 20.18952 5524 ft 185 kts 30°
2026-05-04 19:00 50.52988 20.19983 5527 ft 184 kts 27°
2026-05-04 19:01 50.54100 20.20994 5500 ft 186 kts 29°
2026-05-04 19:01 50.55199 20.22074 5534 ft 185 kts 30°
2026-05-04 19:01 50.56303 20.23105 5556 ft 184 kts 27°
2026-05-04 19:01 50.57394 20.24166 5518 ft 185 kts 30°
2026-05-04 19:02 50.58484 20.25240 5545 ft 185 kts 30°
2026-05-04 19:02 50.59566 20.26328 5552 ft 185 kts 30°
2026-05-04 19:02 50.60690 20.27386 5489 ft 188 kts 28°
2026-05-04 19:02 50.61814 20.28411 5512 ft 186 kts 29°
2026-05-04 19:03 50.62921 20.29481 5504 ft 186 kts 30°
2026-05-04 19:03 50.64009 20.30554 5574 ft 183 kts 29°
2026-05-04 19:03 50.65105 20.31588 5557 ft 185 kts 31°
2026-05-04 19:03 50.66160 20.32793 5507 ft 188 kts 36°
2026-05-04 19:04 50.67183 20.34072 5542 ft 186 kts 37°
2026-05-04 19:04 50.68206 20.35282 5604 ft 183 kts 33°
2026-05-04 19:04 50.69272 20.36384 5620 ft 183 kts 31°
2026-05-04 19:04 50.70341 20.37494 5580 ft 187 kts 31°
2026-05-04 19:05 50.71451 20.38589 5564 ft 187 kts 30°
2026-05-04 19:05 50.72552 20.39679 5582 ft 186 kts 31°
2026-05-04 19:05 50.73632 20.40803 5609 ft 185 kts 31°
2026-05-04 19:05 50.74706 20.41947 5564 ft 189 kts 33°
2026-05-04 19:06 50.75803 20.43134 5459 ft 193 kts 33°
2026-05-04 19:06 50.76877 20.44370 5519 ft 188 kts 35°
2026-05-04 19:06 50.77929 20.45554 5605 ft 183 kts 31°
2026-05-04 19:06 50.79004 20.46653 5580 ft 186 kts 32°
2026-05-04 19:07 50.80085 20.47835 5545 ft 189 kts 33°
2026-05-04 19:07 50.81167 20.48977 5563 ft 187 kts 32°
2026-05-04 19:07 50.82236 20.50152 5564 ft 188 kts 33°
2026-05-04 19:07 50.83298 20.51344 5577 ft 187 kts 34°
2026-05-04 19:08 50.84360 20.52548 5601 ft 187 kts 33°
2026-05-04 19:08 50.85438 20.53667 5640 ft 185 kts 29°
2026-05-04 19:08 50.86566 20.54676 5615 ft 186 kts 27°
2026-05-04 19:08 50.87679 20.55787 5545 ft 191 kts 33°
2026-05-04 19:09 50.88733 20.57080 5514 ft 191 kts 38°
2026-05-04 19:09 50.89784 20.58314 5562 ft 186 kts 30°
2026-05-04 19:09 50.90898 20.59306 5516 ft 187 kts 25°
2026-05-04 19:09 50.92068 20.60231 5479 ft 188 kts 24°
2026-05-04 19:10 50.93215 20.61267 5503 ft 186 kts 27°
2026-05-04 19:10 50.94355 20.62244 5504 ft 186 kts 25°
2026-05-04 19:10 50.95518 20.63173 5489 ft 187 kts 23°
2026-05-04 19:10 50.96691 20.64082 5471 ft 188 kts 24°
2026-05-04 19:11 50.97836 20.65065 5462 ft 187 kts 28°
2026-05-04 19:11 50.98966 20.66100 5461 ft 186 kts 27°
2026-05-04 19:11 51.00076 20.67138 5503 ft 184 kts 28°
2026-05-04 19:11 51.01190 20.68134 5518 ft 184 kts 26°
2026-05-04 19:12 51.02319 20.69143 5459 ft 187 kts 27°
2026-05-04 19:12 51.04541 20.71179 5487 ft 186 kts 28°
2026-05-04 19:12 51.05687 20.72137 5418 ft 189 kts 23°
2026-05-04 19:13 51.06865 20.72990 5493 ft 183 kts 20°
2026-05-04 19:13 51.08029 20.73831 5504 ft 184 kts 23°
2026-05-04 19:13 51.09182 20.74735 5522 ft 184 kts 22°
2026-05-04 19:13 51.10331 20.75643 5484 ft 187 kts 26°
2026-05-04 19:14 51.11453 20.76751 5422 ft 191 kts 31°
2026-05-04 19:14 51.12553 20.77910 5458 ft 187 kts 29°
2026-05-04 19:14 51.13627 20.78882 5515 ft 183 kts 26°
2026-05-04 19:14 51.14761 20.79841 5509 ft 185 kts 24°
2026-05-04 19:15 51.15918 20.80771 5476 ft 187 kts 24°
2026-05-04 19:15 51.17067 20.81732 5480 ft 186 kts 25°
2026-05-04 19:15 51.18214 20.82671 5491 ft 185 kts 24°
2026-05-04 19:15 51.19371 20.83581 5503 ft 185 kts 23°
2026-05-04 19:16 51.20527 20.84477 5495 ft 186 kts 24°
2026-05-04 19:16 51.21670 20.85455 5465 ft 187 kts 26°
2026-05-04 19:16 51.22785 20.86537 5411 ft 188 kts 31°
2026-05-04 19:16 51.23815 20.87723 5147 ft 179 kts 40°
2026-05-04 19:17 51.24605 20.89222 4859 ft 176 kts 57°
2026-05-04 19:17 51.25192 20.90908 4569 ft 172 kts 62°
2026-05-04 19:17 51.25719 20.92625 4279 ft 171 kts 65°
2026-05-04 19:17 51.26190 20.94371 3954 ft 172 kts 68°
2026-05-04 19:18 51.26650 20.96095 3757 ft 165 kts 65°
2026-05-04 19:18 51.27156 20.97770 3496 ft 164 kts 64°
2026-05-04 19:18 51.27642 20.99399 3286 ft 160 kts 63°
2026-05-04 19:18 51.28183 21.00933 3080 ft 157 kts 59°
2026-05-04 19:19 51.28717 21.02441 2854 ft 157 kts 60°
2026-05-04 19:19 51.29280 21.03966 2632 ft 157 kts 59°
2026-05-04 19:19 51.29781 21.05329 2429 ft 128 kts 61°
2026-05-04 19:19 51.30216 21.06545 2145 ft 125 kts 61°
2026-05-04 19:20 51.30650 21.07747 2228 ft 124 kts 61°
2026-05-04 19:20 51.31088 21.08937 2337 ft 124 kts 59°
2026-05-04 19:20 51.31569 21.10146 2304 ft 145 kts 59°
2026-05-04 19:20 51.32117 21.11615 2465 ft 158 kts 60°
2026-05-04 19:21 51.32650 21.13228 2598 ft 167 kts 65°
2026-05-04 19:21 51.33152 21.14987 2616 ft 176 kts 68°
2026-05-04 19:21 51.33675 21.16746 2766 ft 177 kts 64°
2026-05-04 19:21 51.34284 21.18477 2856 ft 179 kts 57°
2026-05-04 19:22 51.34972 21.20156 2816 ft 187 kts 58°
2026-05-04 19:22 51.35863 21.21607 2522 ft 187 kts 26°
2026-05-04 19:22 51.37142 21.21831 2164 ft 184 kts 349°
2026-05-04 19:22 51.38373 21.21952 1983 ft 180 kts 27°
2026-05-04 19:23 51.38956 21.23566 1882 ft 172 kts 86°
2026-05-04 19:23 51.39039 21.25487 1728 ft 174 kts 88°
2026-05-04 19:23 51.39181 21.27389 1705 ft 165 kts 83°
2026-05-04 19:23 51.39426 21.29164 1696 ft 161 kts 76°
2026-05-04 19:24 51.40033 21.30638 1605 ft 165 kts 37°
2026-05-04 19:24 51.41113 21.31019 1551 ft 158 kts 343°
2026-05-04 19:24 51.41810 21.29886 1447 ft 149 kts 274°
2026-05-04 19:24 51.41317 21.28586 1387 ft 141 kts 211°
2026-05-04 19:25 51.40513 21.27647 1258 ft 145 kts 224°
2026-05-04 19:25 51.39896 21.26417 1252 ft 144 kts 238°
2026-05-04 19:25 51.39541 21.25079 957 ft 98 kts 252°
2026-05-04 19:25 51.39408 21.24299 804 ft 58 kts 251°
2026-05-04 19:26 51.39303 21.23731 660 ft 48 kts 247°